This demonstration page uses our WeatherBlox Daily Observations layout. Learn more.

Left ArrowRight Arrow

Hourly Observations for April 30, 2018

Temp ( °F °C ) Dew Point ( °F °C ) Humidity (%) Winds ( mph kmh ) Pressure ( in mb ) Visibility ( mi km ) Precip ( " mm )
12:53 am 00:53 Clear 67 19.4 48 8.9 51 51 S 17 28 29.76 1008 10 16 0.00 0.00
1:53 am 01:53 Clear 66 18.9 49 9.4 54 54 S 22 35 29.75 1008 10 16 0.00 0.00
2:53 am 02:53 Clear 64 17.8 49 9.4 58 58 S 17 28 29.73 1007 10 16 0.00 0.00
3:53 am 03:53 Clear 63 17.2 49 9.4 60 60 S 17 28 29.72 1007 10 16 0.00 0.00
4:53 am 04:53 Clear 62 16.7 49 9.4 62 62 S 18 30 29.72 1006 10 16 0.00 0.00
5:53 am 05:53 Clear 62 16.7 49 9.4 62 62 S 13 20 29.72 1007 10 16 0.00 0.00
6:53 am 06:53 Sunny 61 16.1 49 9.4 65 65 S 17 28 29.73 1007 10 16 0.00 0.00
7:53 am 07:53 Sunny 63 17.2 49 9.4 60 60 S 21 33 29.72 1007 10 16 0.00 0.00
8:53 am 08:53 Sunny 64 17.8 49 9.4 58 58 S 18 30 29.72 1006 10 16 0.00 0.00
9:53 am 09:53 Sunny 68 20 50 10 53 53 S 21 33 29.71 1006 10 16 0.00 0.00
10:53 am 10:53 Sunny 71 21.7 51 10.6 49 49 S 22 35 29.70 1006 10 16 0.00 0.00
11:53 am 11:53 Sunny 73 22.8 52 11.1 48 48 SSW 24 39 29.69 1005 10 16 0.00 0.00
12:53 pm 12:53 Sunny 78 25.6 54 12.2 43 43 S 21 33 29.65 1004 10 16 0.00 0.00
1:53 pm 13:53 Sunny 80 26.7 54 12.2 41 41 S 26 43 29.64 1004 10 16 0.00 0.00
2:53 pm 14:53 Sunny 81 27.2 54 12.2 39 39 S 25 41 29.62 1003 10 16 0.00 0.00
3:53 pm 15:53 Sunny 82 27.8 55 12.8 40 40 S 30 48 29.59 1002 10 16 0.00 0.00
4:53 pm 16:53 Partly Cloudy 82 27.8 55 12.8 40 40 S 26 43 29.59 1002 10 16 0.00 0.00
5:53 pm 17:53 Partly Cloudy 80 26.7 55 12.8 42 42 S 24 39 29.59 1002 10 16 0.00 0.00
6:53 pm 18:53 Sunny 78 25.6 53 11.7 42 42 S 22 35 29.58 1002 10 16 0.00 0.00
7:53 pm 19:53 Sunny 76 24.4 53 11.7 45 45 S 23 37 29.59 1002 10 16 0.00 0.00
8:53 pm 20:53 Clear 73 22.8 54 12.2 51 51 S 20 31 29.59 1002 10 16 0.00 0.00
9:53 pm 21:53 Clear 71 21.7 55 12.8 57 57 S 22 35 29.60 1002 10 16 0.00 0.00
10:53 pm 22:53 Clear 70 21.1 57 13.9 64 64 S 23 37 29.62 1003 10 16 0.00 0.00
11:53 pm 23:53 Clear 68 20 57 13.9 68 68 S 18 30 29.62 1003 10 16 0.00 0.00

Powered by AerisWeather